Current weather by "City, St" or "zip code"  
 

Current Conditions: Ukiah Municipal Airport, CA

Fair


47.0 F

Last Updated on Oct 24 2020, 8:56 am PDT
Humidity: 74%
Wind Speed: N 0.0 mph
Barometer 30.03 in
Dewpoint: 39.0 F
Visibility: 10.00 mi
Precip: --
Heat Index: NA
Wind Chill: NA
Current conditions at:

Ukiah Municipal Airport, CA (KUKI)

Lat: 39.12783 Lon: 123.20011

Local Radar Image active severe weather and emergency alerts image image weather storm and storm spotter reports image weather observation monitoring service image
Local
Radar
Active
Alerts
Storm Reports Obs
Monitoring

Sign-up For Email & Text Message Weather Alert Notification Services



Advertise Here

Observation History for Ukiah Municipal Airport, CA


Time Wind
(mph)
Vis
(mi)
Weather Precip (in) Temperature (F) Relative
Humidity
Wind
Chill
(F)
Heat
Index
(F)
Pressure
Air Dwpt altimeter
(in)
sea level
(mb)
Rmks
8:56 am PDT N 0.0 10.00 Fair -- 47.0 39.0 74% NA NA 30.03 1016.4
7:56 am PDT N 0.0 10.00 Fair -- 43.0 37.9 82% NA NA 30.01 1016.0
6:56 am PDT N 0.0 10.00 Fair -- 45.0 37.9 77% NA NA 30.02 1016.2
5:56 am PDT N 0.0 10.00 Fair -- 43.0 39.0 86% NA NA 30.00 1015.2
4:56 am PDT N 0.0 10.00 Fair -- 44.0 39.0 83% NA NA 29.99 1015.0
3:56 am PDT N 0.0 10.00 Fair -- 46.0 39.9 79% NA NA 29.99 1015.0
2:56 am PDT N 0.0 10.00 Fair -- 49.0 39.0 69% NA NA 30.00 1015.0
1:56 am PDT N 0.0 10.00 Fair -- 49.0 41.0 74% NA NA 30.00 1015.2
12:56 am PDT N 0.0 10.00 Fair -- 51.0 41.0 69% NA NA 30.01 1015.6
11:56 pm PDT N 0.0 10.00 Fair -- 51.0 43.0 74% NA NA 30.00 1015.4
10:56 pm PDT N 0.0 10.00 Fair -- 53.0 43.0 69% NA NA 29.99 1015.1
9:56 pm PDT N 0.0 10.00 Fair -- 57.0 45.0 64% NA NA 29.98 1014.8
8:56 pm PDT N 0.0 10.00 Fair -- 59.0 45.0 60% NA NA 29.97 1014.5
7:56 pm PDT N 0.0 10.00 Fair -- 63.0 46.0 54% NA NA 29.96 1014.2
6:56 pm PDT 3.5 10.00 Fair -- 67.0 46.0 47% NA NA 29.94 1013.6
5:56 pm PDT NE 4.6 10.00 Fair -- 71.0 46.9 42% NA NA 29.93 1012.9
4:56 pm PDT NW 6.9 10.00 Fair -- 77.0 44.1 31% NA NA 29.92 1012.5
3:56 pm PDT S 8.1 10.00 Fair -- 79.0 37.9 23% NA NA 29.91 1012.2
2:56 pm PDT 4.6 10.00 Fair -- 80.0 35.1 20% NA 79 29.92 1012.4
1:56 pm PDT 3.5 10.00 Fair -- 78.0 37.9 24% NA NA 29.93 1012.9
12:56 pm PDT SE 5.8 10.00 Fair -- 73.0 37.0 27% NA NA 29.96 1013.8
11:56 am PDT SE 3.5 10.00 Fair -- 67.0 37.9 35% NA NA 29.97 1014.3
10:56 am PDT N 0.0 10.00 Fair -- 62.0 39.0 43% NA NA 29.99 1015.0
9:56 am PDT N 0.0 10.00 Fair -- 55.0 37.9 53% NA NA 29.99 1015.1

Regional Weather Observation


Santa Rosa, Santa Rosa Sonoma County Airport, CA (KSTS)

Fog
50.0 F

Petaluma Municipal Airport, CA (KO69)

Fog/Mist
54.0 F

Novato / Gnoss Field, CA (KDVO)

Overcast
54.0 F

Red Bluff, Red Bluff Municipal Airport, CA (KRBL)

Fair
59.0 F

Napa, Napa County Airport, CA (KAPC)

Fog/Mist
51.0 F

Chico Municipal Airport, CA (KCIC)

A Few Clouds
57.0 F